Wind_Speed
7 6 5 5 5 7 9 10 10 10 11 12 12 13 15 16 15 16 15 5 5 5 4 6 6 4 4 6 8 4 3 1 2 2 6 8 2 11 5 17 2 1 8 23 29
8 8 7 6 6 6 8 10 11 11 12 12 13 14 15 18 18 15 12 9 10 9 6 8 6 3 3 2 3 2 3 7 6 3 3 7 7 14 6 14 3 13 15 31 28
9 9 9 9 8 8 8 9 10 11 13 13 13 13 14 18 18 4 1 8 10 10 9 9 5 1 2 4 4 4 5 5 0 0 7 9 9 6 13 2 7 23 32 30 29
9 9 9 9 9 9 9 9 10 10 11 12 12 12 13 14 1 3 7 5 8 5 4 3 4 2 2 4 4 1 1 5 3 7 3 6 10 2 11 4 14 19 29 32 31
9 10 10 10 10 10 10 10 10 11 11 11 11 11 10 9 8 2 3 6 3 3 2 2 3 2 3 3 4 1 3 4 4 7 8 3 6 6 6 1 13 24 30 30 30
11 11 11 11 11 11 11 11 11 11 11 11 10 10 8 5 5 5 2 4 4 3 1 1 3 6 5 3 1 1 2 4 4 5 5 5 4 6 3 12 18 26 33 28 27
13 13 12 12 12 12 11 11 11 11 11 10 10 10 12 17 7 8 6 4 4 2 2 1 5 3 2 4 3 3 2 3 2 1 2 3 3 3 19 15 17 26 31 30 27
14 14 14 14 13 13 12 12 12 11 11 10 9 9 10 7 9 14 9 8 5 3 0 1 4 5 1 8 3 4 4 4 3 2 2 3 3 2 20 21 21 23 28 32 29
16 16 15 15 15 13 12 13 11 11 8 7 8 6 11 4 4 8 13 10 7 3 1 1 1 3 4 4 4 6 2 2 1 4 1 3 2 4 18 18 18 23 26 32 30
17 17 17 17 16 13 12 12 9 7 6 6 10 5 9 2 1 4 12 11 8 4 5 4 2 4 4 4 4 3 2 3 3 3 3 2 2 6 19 19 20 23 27 29 33
18 18 18 18 17 15 11 6 3 2 5 8 3 7 8 10 10 4 8 9 5 1 4 3 4 6 6 8 2 4 3 3 2 2 3 4 6 10 16 20 20 24 26 29 35
19 19 18 18 17 13 7 3 5 4 10 15 19 24 25 22 8 3 9 8 4 3 4 5 3 5 4 4 5 4 3 2 2 2 1 2 7 8 10 14 28 29 32 32 32
19 20 19 18 15 6 3 4 6 13 4 8 13 16 20 11 9 8 8 10 4 5 4 6 5 3 2 1 3 2 5 5 4 2 1 4 4 4 5 7 20 31 36 37 39
19 20 20 17 9 9 3 3 11 1 4 6 3 4 11 7 4 13 10 9 2 9 8 5 3 4 2 4 5 2 7 5 7 3 2 3 4 4 3 6 8 19 28 34 36
18 19 19 17 16 7 3 9 6 1 3 2 2 1 11 12 4 5 14 8 6 6 6 7 6 4 2 5 6 4 6 3 3 4 2 2 3 6 1 4 9 14 26 29 31
18 19 18 18 13 6 4 5 4 5 4 5 3 3 4 2 1 3 6 6 4 5 3 4 1 2 6 3 8 4 5 7 5 2 3 5 3 6 3 5 4 10 28 31 31
19 19 20 16 9 2 1 1 5 3 5 6 3 2 4 5 2 2 4 3 5 4 2 2 2 2 4 1 2 6 6 4 3 4 5 4 1 10 6 8 5 8 12 15 22
19 19 18 13 8 6 3 5 1 3 6 5 4 1 6 5 3 2 4 3 0 5 3 5 6 7 3 8 6 4 7 5 6 3 4 2 5 6 5 8 7 9 13 15 17
20 18 10 3 8 11 6 3 6 5 4 7 9 5 3 0 4 2 6 8 8 9 7 6 5 3 5 5 7 3 4 5 7 3 2 3 7 10 5 7 11 12 15 14 14
21 14 5 3 12 14 5 4 4 4 5 3 3 3 3 2 4 6 7 6 6 11 6 7 3 4 2 4 5 4 3 3 3 4 4 4 6 6 5 8 6 6 12 12 10
15 3 4 10 17 6 4 6 5 8 5 4 1 3 6 3 6 5 7 5 7 5 5 6 4 3 3 5 9 2 1 6 5 4 5 2 6 8 10 10 10 10 13 14 14
6 2 5 12 4 2 4 6 2 4 10 7 3 9 5 2 4 4 6 8 11 15 10 7 6 5 10 0 1 4 7 6 5 6 2 3 7 3 8 9 19 15 10 9 9
11 3 8 2 3 1 4 3 4 3 4 2 4 7 4 3 2 5 5 7 14 8 10 8 1 2 9 5 2 3 4 5 5 4 7 6 7 1 2 8 18 21 14 11 11
5 2 2 4 1 4 2 3 4 7 7 6 5 2 2 3 6 3 3 2 6 8 13 16 4 8 7 8 4 4 4 4 5 4 4 7 9 6 7 9 11 18 10 10 13
2 1 0 2 2 2 2 1 3 4 4 3 4 4 2 4 3 4 3 5 4 9 4 7 8 7 7 4 4 4 4 8 8 6 6 8 8 15 9 14 22 23 13 13 17
2 2 2 3 3 2 4 5 3 4 3 3 2 11 6 6 1 3 3 2 1 2 3 3 1 4 3 6 6 4 5 8 7 1 8 4 8 6 2 15 19 27 23 20 20
2 2 2 2 1 2 4 4 4 3 7 13 6 4 4 2 11 19 13 14 5 1 2 3 5 3 4 2 4 4 7 8 5 5 6 6 9 4 5 9 24 30 30 27 25
Wind_Direction
12 7 354 328 300 288 285 285 288 293 296 302 308 311 311 309 300 284 275 247 222 222 302 323 332 305 248 227 210 180 79 97 285 330 300 174 111 150 136 143 41 86 157 162 158
0 356 352 343 325 305 290 286 286 288 291 297 303 308 312 314 312 276 267 238 234 252 289 328 332 274 189 167 161 147 116 197 190 180 244 198 175 163 123 149 69 93 138 155 163
351 350 346 342 334 326 315 303 294 289 287 290 297 304 312 318 323 58 14 227 226 247 275 291 318 281 164 140 221 168 175 187 1 281 248 182 191 166 125 204 185 151 152 163 168
345 341 340 336 332 327 322 315 309 302 292 289 291 299 309 315 98 72 62 160 219 260 238 284 327 124 69 174 213 317 73 140 125 21 326 126 135 148 153 259 208 182 169 167 173
345 337 332 329 326 324 322 317 311 309 302 293 287 291 304 293 264 251 51 117 177 180 174 214 0 15 159 228 102 255 82 154 116 18 9 147 152 173 199 180 167 168 172 176 181
348 338 329 323 321 321 321 317 313 309 304 296 285 284 286 273 241 245 185 136 154 153 133 88 4 331 118 72 343 218 60 68 63 336 358 104 125 112 149 160 154 170 178 183 189
346 338 331 324 318 317 317 312 310 305 302 292 282 279 271 248 253 232 212 196 183 266 340 8 331 306 187 110 122 108 58 34 0 38 312 132 35 70 158 169 165 175 184 191 199
345 340 333 326 318 317 315 308 307 304 300 294 287 288 263 258 247 225 222 212 225 246 1 38 0 96 66 125 57 51 57 49 278 209 33 103 248 101 162 166 172 186 195 198 203
343 338 333 326 318 317 314 306 307 301 297 295 284 278 268 295 274 224 231 217 226 267 70 239 245 100 110 70 18 16 301 237 303 215 30 89 200 177 176 177 179 188 194 204 209
341 337 333 327 318 318 319 314 317 291 266 256 251 279 249 139 255 301 211 218 244 263 129 169 111 83 41 72 252 199 281 271 246 197 129 29 194 170 186 191 199 203 204 206 213
338 335 334 330 320 322 331 334 320 309 247 231 264 246 280 296 302 200 186 203 217 79 120 25 84 233 198 211 214 131 173 262 282 226 123 195 192 193 187 200 204 215 216 220 221
333 334 335 332 325 329 355 79 77 352 298 269 256 255 256 267 296 233 184 174 153 180 111 38 213 229 193 193 194 123 132 271 0 99 125 199 242 221 194 200 199 208 219 224 230
329 331 335 334 329 343 21 141 326 320 245 284 242 245 249 241 226 227 183 168 140 144 166 155 224 170 161 101 184 138 177 178 189 189 101 297 276 205 244 241 211 217 219 223 227
325 328 333 338 330 339 130 336 327 0 45 280 264 251 187 158 249 219 181 175 160 176 160 209 242 251 101 239 135 175 200 158 146 104 271 33 290 233 188 230 232 219 220 223 227
321 322 327 329 318 323 267 324 324 74 357 248 207 170 172 173 137 187 207 194 170 157 118 228 162 143 147 233 165 212 157 155 94 78 32 24 55 270 180 206 237 229 224 225 228
317 318 319 321 319 303 258 317 141 42 260 337 119 143 128 297 194 104 162 186 160 123 45 199 299 175 197 244 174 115 65 45 53 48 10 324 130 281 238 192 225 232 231 230 229
315 313 311 309 301 290 226 140 41 143 315 326 8 147 174 193 247 83 129 124 141 122 226 353 209 261 180 261 84 73 65 357 357 13 224 309 44 244 249 242 214 250 274 257 242
317 313 307 294 263 209 203 57 171 263 268 298 310 272 186 155 238 94 93 162 112 94 125 160 256 163 197 190 202 141 150 167 205 205 259 284 243 256 220 263 242 259 297 284 256
323 321 308 267 199 178 161 89 212 215 298 324 329 46 350 151 157 118 184 195 199 169 162 139 251 259 209 158 136 175 174 176 107 18 29 240 291 296 216 269 280 279 283 259 253
329 330 7 184 166 158 87 220 244 232 300 0 11 31 320 280 149 154 186 204 207 186 161 202 171 207 236 92 36 146 156 82 4 137 231 284 283 242 270 236 245 281 252 233 233
331 343 26 140 145 146 152 227 266 262 295 339 263 288 239 277 186 210 202 245 196 162 138 141 112 264 127 192 176 107 199 49 118 126 167 226 261 222 238 199 186 229 224 227 238
343 49 142 140 78 44 161 199 249 279 294 249 222 210 233 278 271 227 216 231 189 141 164 199 144 219 218 85 180 147 187 150 136 222 214 176 272 292 236 176 177 191 198 207 219
341 342 172 17 126 299 294 297 254 267 255 242 261 211 189 255 295 209 211 263 163 154 162 181 188 40 342 0 54 187 180 136 117 99 197 150 262 343 307 161 184 181 178 185 163
337 26 113 232 125 127 68 287 303 267 258 233 254 239 266 267 203 274 274 271 202 209 205 146 133 159 188 207 159 177 180 158 129 137 168 226 259 247 224 218 187 195 195 164 159
330 14 178 241 271 168 164 274 275 300 244 267 290 236 10 287 271 219 264 310 29 122 87 134 192 172 228 183 180 206 185 170 189 190 166 254 203 257 222 208 202 187 187 188 175
327 5 334 283 284 164 167 222 212 285 241 277 207 296 263 209 233 271 346 271 14 44 109 353 214 172 264 153 208 193 262 204 206 204 266 271 273 242 257 182 173 188 195 198 189
306 295 306 280 180 124 219 207 234 350 260 248 299 315 305 233 299 279 256 275 266 352 118 105 129 100 232 24 133 13 237 220 187 187 169 184 234 186 210 209 188 183 191 195 193
Height
1507 1506 1505 1505 1504 1504 1503 1503 1503 1503 1502 1502 1501 1499 1497 1493 1490 1490 1490 1494 1494 1494 1495 1495 1494 1493 1494 1494 1494 1494 1505 1513 1508 1508 1505 1495 1496 1498 1500 1501 1504 1505 1505 1508 1514
1506 1505 1505 1504 1503 1503 1502 1501 1501 1501 1500 1500 1499 1498 1496 1492 1488 1486 1489 1491 1493 1494 1494 1494 1493 1493 1492 1493 1495 1493 1503 1503 1496 1497 1501 1495 1496 1496 1500 1503 1506 1505 1508 1511 1516
1506 1505 1504 1503 1502 1502 1500 1499 1499 1499 1498 1498 1498 1497 1494 1491 1488 1486 1486 1488 1491 1493 1494 1494 1491 1492 1490 1493 1491 1492 1498 1493 1494 1494 1496 1493 1494 1498 1501 1506 1505 1505 1508 1512 1516
1505 1504 1503 1502 1501 1500 1499 1498 1497 1496 1495 1495 1495 1494 1493 1492 1493 1486 1486 1488 1490 1492 1492 1492 1491 1490 1490 1493 1491 1493 1492 1492 1494 1495 1496 1493 1496 1498 1499 1500 1502 1505 1507 1511 1516
1505 1503 1502 1500 1499 1499 1498 1496 1495 1494 1493 1492 1492 1492 1493 1491 1486 1485 1487 1487 1490 1491 1491 1491 1491 1490 1493 1491 1491 1493 1493 1494 1493 1495 1495 1494 1495 1497 1500 1499 1500 1505 1510 1513 1516
1504 1502 1501 1499 1497 1496 1495 1494 1493 1492 1491 1490 1490 1490 1491 1490 1483 1484 1486 1487 1489 1490 1490 1490 1490 1489 1490 1492 1494 1492 1491 1494 1495 1496 1495 1496 1498 1497 1502 1503 1504 1507 1510 1514 1517
1503 1501 1499 1498 1496 1495 1494 1493 1491 1490 1489 1488 1488 1488 1487 1481 1481 1482 1485 1486 1487 1489 1489 1489 1489 1490 1488 1492 1494 1494 1494 1495 1497 1495 1496 1496 1500 1501 1501 1504 1506 1509 1512 1514 1516
1502 1500 1498 1496 1494 1494 1492 1490 1489 1488 1487 1486 1486 1486 1481 1478 1479 1480 1483 1485 1486 1488 1488 1488 1488 1488 1489 1491 1494 1497 1499 1511 1498 1495 1496 1498 1511 1502 1503 1504 1507 1510 1512 1513 1514
1501 1499 1497 1494 1492 1491 1490 1488 1487 1486 1485 1485 1485 1485 1479 1477 1477 1478 1481 1483 1485 1486 1487 1488 1488 1488 1491 1497 1506 1506 1516 1511 1501 1495 1497 1500 1508 1501 1503 1506 1508 1509 1510 1512 1515
1500 1498 1495 1492 1490 1488 1487 1486 1484 1484 1484 1483 1483 1486 1477 1477 1477 1477 1479 1481 1483 1484 1486 1488 1488 1493 1498 1505 1524 1512 1513 1508 1506 1496 1497 1501 1503 1500 1501 1503 1505 1507 1510 1511 1511
1499 1496 1494 1491 1488 1486 1486 1485 1487 1485 1482 1478 1478 1476 1475 1475 1476 1476 1477 1480 1481 1482 1489 1488 1497 1502 1499 1496 1494 1499 1504 1505 1497 1494 1497 1501 1502 1498 1498 1501 1502 1503 1505 1506 1506
1498 1495 1492 1489 1486 1485 1485 1485 1485 1488 1481 1474 1473 1472 1473 1475 1477 1474 1476 1479 1481 1487 1487 1495 1500 1488 1489 1491 1494 1499 1504 1506 1500 1496 1500 1502 1502 1497 1495 1493 1494 1497 1499 1499 1500
1496 1493 1491 1488 1485 1485 1485 1486 1485 1484 1483 1469 1467 1467 1470 1473 1473 1471 1474 1475 1479 1488 1488 1497 1490 1486 1486 1490 1496 1500 1504 1502 1500 1497 1498 1502 1504 1498 1493 1493 1493 1492 1493 1495 1495
1495 1492 1489 1487 1487 1485 1485 1485 1484 1483 1493 1474 1466 1464 1466 1469 1471 1469 1472 1475 1478 1486 1489 1490 1484 1485 1488 1493 1494 1503 1490 1491 1497 1503 1520 1503 1528 1501 1495 1494 1490 1488 1488 1487 1487
1493 1490 1488 1486 1485 1485 1486 1484 1483 1483 1513 1466 1464 1464 1464 1467 1467 1467 1470 1472 1477 1480 1485 1491 1486 1486 1491 1489 1488 1494 1488 1492 1496 1508 1510 1512 1523 1500 1493 1493 1488 1483 1482 1481 1479
1490 1488 1486 1484 1483 1484 1484 1484 1485 1500 1509 1471 1464 1465 1467 1465 1465 1465 1468 1471 1472 1476 1480 1483 1481 1482 1483 1480 1482 1485 1493 1499 1509 1515 1534 1521 1521 1508 1493 1483 1483 1479 1475 1475 1474
1487 1485 1482 1482 1482 1482 1483 1484 1502 1513 1475 1475 1469 1465 1467 1468 1466 1465 1469 1474 1483 1496 1495 1486 1484 1480 1479 1485 1484 1491 1506 1538 1535 1543 1541 1525 1524 1500 1481 1475 1474 1473 1473 1475 1476
1484 1481 1479 1478 1478 1480 1483 1487 1506 1489 1485 1470 1467 1465 1470 1466 1466 1468 1473 1482 1477 1483 1503 1504 1508 1484 1477 1482 1487 1494 1503 1531 1541 1547 1536 1521 1526 1493 1473 1469 1471 1470 1471 1472 1472
1480 1477 1474 1473 1475 1479 1483 1504 1499 1489 1479 1477 1470 1470 1470 1464 1466 1468 1476 1481 1474 1476 1494 1505 1500 1476 1475 1473 1478 1491 1505 1496 1528 1536 1535 1525 1506 1478 1470 1471 1468 1468 1468 1470 1473
1476 1473 1472 1472 1474 1478 1485 1497 1489 1481 1477 1475 1482 1476 1480 1469 1470 1475 1478 1464 1467 1466 1467 1481 1497 1476 1471 1473 1478 1482 1487 1510 1524 1539 1538 1529 1521 1506 1477 1473 1468 1469 1468 1471 1473
1475 1473 1473 1472 1476 1479 1493 1493 1483 1477 1477 1477 1477 1478 1476 1470 1470 1474 1467 1459 1456 1463 1466 1476 1487 1486 1477 1481 1486 1492 1497 1506 1511 1523 1535 1536 1517 1473 1466 1466 1467 1467 1468 1471 1473
1476 1476 1475 1475 1479 1483 1488 1483 1479 1476 1475 1474 1473 1473 1472 1465 1465 1469 1467 1457 1447 1451 1469 1468 1486 1498 1486 1471 1471 1475 1485 1493 1512 1517 1525 1521 1506 1458 1458 1459 1461 1465 1468 1471 1473
1478 1477 1477 1477 1484 1487 1482 1480 1478 1475 1473 1471 1470 1466 1463 1464 1469 1462 1458 1442 1445 1450 1458 1464 1486 1506 1493 1482 1474 1476 1481 1487 1496 1504 1520 1518 1500 1461 1459 1458 1459 1464 1470 1472 1471
1480 1479 1478 1479 1480 1481 1482 1481 1479 1472 1471 1469 1465 1462 1463 1462 1460 1460 1452 1442 1443 1443 1444 1450 1479 1485 1503 1484 1472 1475 1474 1479 1485 1508 1507 1500 1476 1461 1459 1458 1458 1460 1464 1468 1470
1481 1481 1481 1482 1480 1479 1480 1480 1479 1476 1468 1465 1463 1463 1463 1465 1460 1459 1450 1444 1440 1443 1446 1450 1470 1475 1468 1465 1466 1466 1468 1476 1482 1480 1486 1471 1477 1453 1449 1448 1448 1456 1461 1464 1466
1482 1481 1481 1479 1478 1479 1480 1479 1476 1474 1471 1466 1466 1460 1458 1464 1454 1456 1452 1448 1446 1445 1448 1453 1467 1468 1464 1467 1469 1468 1466 1467 1468 1468 1472 1465 1464 1442 1441 1442 1449 1450 1456 1461 1466
1482 1481 1482 1478 1478 1479 1478 1475 1473 1473 1465 1464 1463 1462 1457 1453 1451 1449 1448 1445 1445 1445 1451 1457 1467 1476 1476 1465 1469 1482 1465 1459 1455 1457 1456 1467 1448 1443 1442 1440 1438 1443 1451 1458 1462